N4XWC Weather Reports


time (UTC)temp
C
wind
direction
speed
KPH
gust
KPH
rain 1hr
cm
rain 24hr
cm
rain mn
cm
humidity
%
barometer
mb
20260901083222 25 85 3.2 3.2 0.00 0.00 0.00 85 1017.3
20260901083157 25 92 1.6 4.8 0.00 0.00 0.00 85 1017.3
20260901082722 25 119 3.2 4.8 0.00 0.00 0.00 85 1017.1
20260901082222 25 97 1.6 3.2 0.00 0.00 0.00 85 1017.1
20260901082155 25 92 0.0 3.2 0.00 0.00 0.00 85 1017.1
20260901081722 25 95 0.0 1.6 0.00 0.00 0.00 85 1017.1
20260901081222 25 100 3.2 3.2 0.00 0.00 0.00 85 1017.1
20260901081156 25 95 3.2 4.8 0.00 0.00 0.00 85 1017.1
20260901080722 25 78 3.2 4.8 0.00 0.00 0.00 85 1017.1
20260901080223 25 96 4.8 4.8 0.00 0.00 0.00 85 1017.1
20260901080156 25 85 4.8 4.8 0.00 0.00 0.00 85 1017.1
20260901075723 25 93 1.6 3.2 0.00 0.00 0.00 85 1017.1
20260901075223 25 128 3.2 3.2 0.00 0.00 0.00 85 1017.1
20260901075156 25 112 3.2 3.2 0.00 0.00 0.00 85 1017.1
20260901074724 25 119 1.6 4.8 0.00 0.00 0.00 85 1017.1
20260901074223 25 119 1.6 3.2 0.00 0.00 0.00 85 1017.1
20260901074157 25 116 0.0 3.2 0.00 0.00 0.00 85 1017.1
20260901073723 25 102 3.2 3.2 0.00 0.00 0.00 85 1017.1
20260901073224 25 88 1.6 3.2 0.00 0.00 0.00 85 1017.1
20260901073157 25 96 1.6 3.2 0.00 0.00 0.00 85 1017.1
20260901072723 25 104 3.2 3.2 0.00 0.00 0.00 85 1017.0
20260901072223 25 78 1.6 3.2 0.00 0.00 0.00 82 1017.0
20260901072157 25 90 3.2 3.2 0.00 0.00 0.00 82 1017.0
20260901071723 25 93 1.6 1.6 0.00 0.00 0.00 82 1017.0
20260901071223 25 102 1.6 1.6 0.00 0.00 0.00 82 1017.1
20260901071156 25 102 1.6 3.2 0.00 0.00 0.00 82 1017.1
20260901070722 25 78 3.2 3.2 0.00 0.00 0.00 82 1017.1
20260901070543 25 86 3.2 3.2 0.00 0.00 0.00 82 1017.1
20260901070223 25 86 3.2 3.2 0.00 0.00 0.00 82 1017.1
20260901070157 25 86 3.2 3.2 0.00 0.00 0.00 82 1017.1
20260901065723 25 100 1.6 1.6 0.00 0.00 0.00 82 1017.1
20260901065223 25 112 0.0 0.0 0.00 0.00 0.00 82 1017.1
20260901065157 25 112 0.0 3.2 0.00 0.00 0.00 82 1017.1
20260901065034 25 100 1.6 3.2 0.00 0.00 0.00 81 1017.1
20260901064534 25 103 3.2 3.2 0.00 0.00 0.00 81 1017.1
20260901064157 25 93 1.6 1.6 0.00 0.00 0.00 81 1017.2
20260901064034 25 93 1.6 1.6 0.00 0.00 0.00 81 1017.2
20260901063535 25 106 3.2 3.2 0.00 0.00 0.00 81 1017.2
20260901063158 25 93 3.2 3.2 0.00 0.00 0.00 81 1017.2
20260901063038 25 93 3.2 3.2 0.00 0.00 0.00 81 1017.2
20260901062534 25 88 1.6 3.2 0.00 0.00 0.00 82 1017.3
20260901062157 25 106 0.0 3.2 0.00 0.00 0.00 82 1017.3
20260901062033 25 83 1.6 4.8 0.00 0.00 0.00 82 1017.3
20260901061533 25 99 3.2 3.2 0.00 0.00 0.00 82 1017.3
20260901061157 25 75 1.6 3.2 0.00 0.00 0.00 82 1017.2
20260901061033 25 92 3.2 3.2 0.00 0.00 0.00 82 1017.2
20260901060534 25 100 3.2 3.2 0.00 0.00 0.00 81 1017.2
20260901060157 26 90 1.6 1.6 0.00 0.00 0.00 81 1017.2
20260901060035 26 80 1.6 1.6 0.00 0.00 0.00 81 1017.2
20260901055533 26 119 0.0 3.2 0.00 0.00 0.00 81 1017.2
20260901055156 26 79 3.2 3.2 0.00 0.00 0.00 81 1017.2
20260901055034 26 79 3.2 3.2 0.00 0.00 0.00 81 1017.2
20260901054420 26 89 3.2 4.8 0.00 0.00 0.00 81 1017.2
20260901054403 26 96 1.6 3.2 0.00 0.00 0.00 82 1017.2
20260901054157 26 96 1.6 3.2 0.00 0.00 0.00 82 1017.2
20260901053920 26 72 3.2 3.2 0.00 0.00 0.00 82 1017.2
20260901053421 26 92 1.6 4.8 0.00 0.00 0.00 83 1017.2
20260901053157 26 75 3.2 4.8 0.00 0.00 0.00 84 1017.2
20260901052919 26 79 3.2 3.2 0.00 0.00 0.00 84 1017.2
20260901052420 26 85 3.2 3.2 0.00 0.00 0.00 85 1017.3
20260901052155 26 69 1.6 3.2 0.00 0.00 0.00 85 1017.3
20260901051920 26 73 1.6 3.2 0.00 0.00 0.00 84 1017.3
20260901051421 26 90 3.2 3.2 0.00 0.00 0.00 84 1017.3
20260901051156 26 73 1.6 1.6 0.00 0.00 0.00 84 1017.3
20260901050922 26 76 1.6 1.6 0.00 0.00 0.00 84 1017.3
20260901050420 26 109 3.2 3.2 0.00 0.00 0.00 84 1017.3
20260901050158 26 88 4.8 4.8 0.00 0.00 0.00 84 1017.3
20260901045919 26 88 4.8 4.8 0.00 0.00 0.00 84 1017.3
20260901045420 26 52 3.2 4.8 0.00 0.00 0.00 85 1017.4
20260901045159 26 58 3.2 3.2 0.00 0.00 0.00 85 1017.4
20260901044920 26 85 4.8 4.8 0.00 0.00 0.00 85 1017.4
20260901044420 26 71 4.8 6.4 0.00 0.00 0.00 85 1017.4
20260901044157 26 58 1.6 4.8 0.00 0.00 0.00 85 1017.4
20260901043920 26 73 3.2 4.8 0.00 0.00 0.00 86 1017.4
20260901043419 26 82 3.2 3.2 0.00 0.00 0.00 86 1017.4
20260901043202 26 71 1.6 4.8 0.00 0.00 0.00 86 1017.4
20260901042919 26 68 1.6 3.2 0.00 0.00 0.00 85 1017.4
20260901042419 26 95 1.6 3.2 0.00 0.00 0.00 85 1017.4
20260901042202 26 76 0.0 4.8 0.00 0.00 0.00 85 1017.4
20260901041920 26 99 1.6 3.2 0.00 0.00 0.00 84 1017.4
20260901041420 26 99 1.6 3.2 0.00 0.00 0.00 84 1017.4
20260901041156 26 88 1.6 3.2 0.00 0.00 0.00 84 1017.5
20260901040920 26 93 1.6 3.2 0.00 0.00 0.00 83 1017.5
20260901040421 26 88 3.2 3.2 0.00 0.00 0.00 83 1017.5
20260901040204 26 79 1.6 3.2 0.00 0.00 0.00 82 1017.5
20260901035919 26 83 1.6 3.2 0.00 0.00 0.00 82 1017.5
20260901035419 26 86 1.6 1.6 0.00 0.00 0.00 82 1017.4
20260901035156 26 90 3.2 3.2 0.00 0.00 0.00 82 1017.4
20260901034920 26 83 3.2 3.2 0.00 0.00 0.00 82 1017.4
20260901034420 26 78 1.6 1.6 0.00 0.00 0.00 82 1017.4
20260901034156 26 82 1.6 1.6 0.00 0.00 0.00 82 1017.5
20260901033920 26 83 1.6 1.6 0.00 0.00 0.00 82 1017.5
20260901033421 26 93 3.2 3.2 0.00 0.00 0.00 81 1017.5
20260901033156 26 69 3.2 3.2 0.00 0.00 0.00 81 1017.5
20260901032920 26 92 1.6 3.2 0.00 0.00 0.00 82 1017.5
20260901032419 26 89 0.0 3.2 0.00 0.00 0.00 82 1017.5
20260901032156 26 79 3.2 3.2 0.00 0.00 0.00 82 1017.5
20260901031921 26 89 1.6 3.2 0.00 0.00 0.00 82 1017.5
20260901031419 26 86 1.6 3.2 0.00 0.00 0.00 82 1017.5
20260901031155 26 58 0.0 1.6 0.00 0.00 0.00 82 1017.6
20260901030919 26 58 1.6 1.6 0.00 0.00 0.00 82 1017.6
20260901030420 26 58 1.6 1.6 0.00 0.00 0.00 82 1017.6
20260901030156 26 73 1.6 1.6 0.00 0.00 0.00 81 1017.6
20260901025920 26 66 1.6 1.6 0.00 0.00 0.00 81 1017.6
20260901025420 26 54 3.2 3.2 0.00 0.00 0.00 81 1017.7
20260901025156 26 65 1.6 4.8 0.00 0.00 0.00 81 1017.7
20260901024920 26 79 3.2 3.2 0.00 0.00 0.00 80 1017.7
20260901024421 27 92 1.6 3.2 0.00 0.00 0.00 80 1017.7
20260901024157 27 92 3.2 3.2 0.00 0.00 0.00 80 1017.5
20260901023919 27 100 0.0 1.6 0.00 0.00 0.00 80 1017.5
20260901023419 27 103 1.6 3.2 0.00 0.00 0.00 81 1017.5
20260901023155 27 106 0.0 0.0 0.00 0.00 0.00 81 1017.5
20260901022920 27 106 0.0 0.0 0.00 0.00 0.00 81 1017.5
20260901022420 27 106 1.6 3.2 0.00 0.00 0.00 80 1017.4
20260901022156 27 106 1.6 3.2 0.00 0.00 0.00 80 1017.4
20260901021920 27 106 1.6 3.2 0.00 0.00 0.00 80 1017.4
20260901021419 27 112 3.2 3.2 0.00 0.00 0.00 80 1017.4
20260901021414 27 123 0.0 4.8 0.00 0.00 0.00 80 1017.4
20260901021157 27 123 0.0 4.8 0.00 0.00 0.00 80 1017.4
20260901020919 27 117 1.6 3.2 0.00 0.00 0.00 80 1017.4
20260901020419 27 104 0.0 0.0 0.00 0.00 0.00 80 1017.4
20260901020155 27 107 0.0 0.0 0.00 0.00 0.00 80 1017.4
20260901015920 27 107 0.0 0.0 0.00 0.00 0.00 80 1017.4
20260901015420 27 96 0.0 0.0 0.00 0.00 0.00 80 1017.2
20260901015156 27 97 0.0 0.0 0.00 0.00 0.00 80 1017.2
20260901014920 27 97 0.0 0.0 0.00 0.00 0.00 80 1017.2
20260901014419 27 88 0.0 0.0 0.00 0.00 0.00 79 1017.2
20260901014157 27 76 1.6 3.2 0.00 0.00 0.00 79 1017.0
20260901013919 27 82 0.0 1.6 0.00 0.00 0.00 79 1017.0
20260901013419 27 88 1.6 1.6 0.00 0.00 0.00 79 1017.0
20260901013155 27 107 0.0 3.2 0.00 0.00 0.00 79 1017.0
20260901012920 27 103 3.2 3.2 0.00 0.00 0.00 78 1017.0
20260901012420 27 79 1.6 3.2 0.00 0.00 0.00 78 1016.9
20260901012156 27 92 3.2 4.8 0.00 0.00 0.00 78 1016.9
20260901011920 27 90 0.0 1.6 0.00 0.00 0.00 78 1016.9
20260901011420 27 117 1.6 6.4 0.00 0.00 0.00 78 1016.9
20260901011155 27 78 0.0 3.2 0.00 0.00 0.00 78 1016.9
20260901010920 27 97 3.2 3.2 0.00 0.00 0.00 78 1016.9
20260901010419 27 69 4.8 4.8 0.00 0.00 0.00 78 1016.9
20260901010156 27 69 1.6 4.8 0.00 0.00 0.00 78 1016.9
20260901005919 27 86 4.8 4.8 0.00 0.00 0.00 78 1016.9
20260901005419 27 104 4.8 4.8 0.00 0.00 0.00 78 1016.8
20260901005156 27 99 3.2 4.8 0.00 0.00 0.00 78 1016.8
20260901004920 27 49 1.6 4.8 0.00 0.00 0.00 79 1016.8
20260901004420 27 68 3.2 4.8 0.00 0.00 0.00 79 1016.8
20260901004157 27 69 1.6 3.2 0.00 0.00 0.00 79 1016.6
20260901003920 27 76 1.6 3.2 0.00 0.00 0.00 79 1016.6
20260901003419 28 65 1.6 1.6 0.00 0.00 0.00 79 1016.6
20260901003156 28 75 1.6 3.2 0.00 0.00 0.00 79 1016.6
20260901002920 28 64 1.6 3.2 0.00 0.00 0.00 79 1016.6
20260901002420 28 64 1.6 1.6 0.00 0.00 0.00 78 1016.6
20260901002247 28 64 0.0 1.6 0.00 0.00 0.00 78 1016.6
20260901002158 28 64 0.0 1.6 0.00 0.00 0.00 78 1016.6
20260901001921 28 64 1.6 4.8 0.00 0.00 0.00 78 1016.6
20260901001419 28 55 1.6 1.6 0.00 0.00 0.00 77 1016.6
20260901001156 28 56 1.6 1.6 0.00 0.00 0.00 77 1016.7
20260901000919 28 79 1.6 1.6 0.00 0.00 0.00 77 1016.7
20260901000420 28 88 3.2 3.2 0.00 0.00 0.00 76 1016.7
20260901000156 28 80 1.6 1.6 0.00 0.00 0.00 76 1016.7
20260831235920 28 109 1.6 3.2 0.00 0.00 0.00 77 1016.7
20260831235420 29 54 1.6 3.2 0.00 0.00 0.00 76 1016.9
20260831235157 29 59 1.6 3.2 0.00 0.00 0.00 76 1016.9
20260831234920 29 68 0.0 1.6 0.00 0.00 0.00 75 1016.9
20260831234419 29 68 1.6 1.6 0.00 0.00 0.00 75 1016.9
20260831234156 29 89 0.0 1.6 0.00 0.00 0.00 74 1016.7
20260831233919 29 92 1.6 3.2 0.00 0.00 0.00 74 1016.7
20260831233420 30 64 1.6 3.2 0.00 0.00 0.00 73 1016.7
20260831233156 30 64 0.0 1.6 0.00 0.00 0.00 73 1016.7
20260831232919 30 64 1.6 1.6 0.00 0.00 0.00 73 1016.7
20260831232420 30 69 1.6 1.6 0.00 0.00 0.00 72 1016.8
20260831232157 30 69 3.2 3.2 0.00 0.00 0.00 72 1016.8
20260831231920 30 82 3.2 4.8 0.00 0.00 0.00 72 1016.8
20260831231419 30 69 3.2 3.2 0.00 0.00 0.00 71 1016.8
20260831231157 30 78 1.6 1.6 0.00 0.00 0.00 71 1016.8
20260831230919 30 86 0.0 3.2 0.00 0.00 0.00 70 1016.8
20260831230420 30 59 1.6 1.6 0.00 0.00 0.00 70 1016.8
20260831230156 30 59 1.6 1.6 0.00 0.00 0.00 70 1016.8
20260831225919 30 61 1.6 1.6 0.00 0.00 0.00 69 1016.8
20260831225421 30 73 0.0 1.6 0.00 0.00 0.00 70 1016.8
20260831225157 30 99 3.2 4.8 0.00 0.00 0.00 70 1016.8
20260831224919 30 76 1.6 4.8 0.00 0.00 0.00 69 1016.8
20260831224420 30 114 1.6 1.6 0.00 0.00 0.00 69 1016.8
20260831224155 30 127 1.6 3.2 0.00 0.00 0.00 70 1016.9
20260831223920 30 144 0.0 3.2 0.00 0.00 0.00 69 1016.9
20260831223419 30 117 4.8 4.8 0.00 0.00 0.00 70 1016.9
20260831223157 30 76 1.6 4.8 0.00 0.00 0.00 69 1016.9
20260831222920 30 80 1.6 3.2 0.00 0.00 0.00 69 1016.9
20260831222420 31 100 1.6 4.8 0.00 0.00 0.00 68 1016.9
20260831222158 31 56 3.2 3.2 0.00 0.00 0.00 69 1016.9
20260831221919 31 86 3.2 3.2 0.00 0.00 0.00 68 1016.9
20260831221420 31 86 4.8 4.8 0.00 0.00 0.00 68 1016.9
20260831221155 31 143 1.6 8.0 0.00 0.00 0.00 67 1017.0
20260831220920 31 120 0.0 6.4 0.00 0.00 0.00 67 1017.0
20260831220419 31 138 1.6 3.2 0.00 0.00 0.00 67 1017.0
20260831220157 31 79 3.2 3.2 0.00 0.00 0.00 67 1017.0
20260831215920 31 62 3.2 9.7 0.00 0.00 0.00 67 1017.0
20260831215420 31 68 3.2 4.8 0.00 0.00 0.00 65 1017.0
20260831215156 31 121 1.6 1.6 0.00 0.00 0.00 66 1017.0
20260831214920 31 131 0.0 3.2 0.00 0.00 0.00 65 1017.0
20260831214419 31 127 4.8 4.8 0.00 0.00 0.00 65 1017.0
20260831214156 31 119 3.2 4.8 0.00 0.00 0.00 64 1017.1
20260831213919 31 89 4.8 6.4 0.00 0.00 0.00 66 1017.1
20260831213420 31 76 3.2 4.8 0.00 0.00 0.00 65 1017.1
20260831213155 31 17 1.6 1.6 0.00 0.00 0.00 65 1017.1
20260831212921 31 45 1.6 3.2 0.00 0.00 0.00 65 1017.1
20260831212419 31 44 3.2 8.0 0.00 0.00 0.00 63 1017.3
20260831212156 31 64 0.0 3.2 0.00 0.00 0.00 63 1017.3
20260831211920 31 3 1.6 4.8 0.00 0.00 0.00 64 1017.3
20260831211421 32 47 4.8 8.0 0.00 0.00 0.00 63 1017.3
20260831211158 32 73 0.0 6.4 0.00 0.00 0.00 63 1017.4
20260831210919 32 106 4.8 4.8 0.00 0.00 0.00 63 1017.4
20260831210420 32 95 1.6 4.8 0.00 0.00 0.00 61 1017.4
20260831210226 32 80 0.0 1.6 0.00 0.00 0.00 60 1017.4
20260831210155 32 80 0.0 1.6 0.00 0.00 0.00 60 1017.4
20260831205921 32 78 3.2 6.4 0.00 0.00 0.00 60 1017.4
20260831205419 32 95 6.4 6.4 0.00 0.00 0.00 64 1017.4
20260831205156 32 357 1.6 3.2 0.00 0.00 0.00 63 1017.4
20260831204920 32 20 0.0 6.4 0.00 0.00 0.00 62 1017.4
20260831204420 32 126 1.6 3.2 0.00 0.00 0.00 60 1017.4
20260831204156 32 103 1.6 6.4 0.00 0.00 0.00 60 1017.4
20260831203919 32 35 8.0 8.0 0.00 0.00 0.00 60 1017.4
20260831203421 32 131 0.0 0.0 0.00 0.00 0.00 59 1017.4
20260831203200 32 124 3.2 4.8 0.00 0.00 0.00 59 1017.4
20260831202919 32 88 9.7 9.7 0.00 0.00 0.00 59 1017.4
20260831202419 32 32 4.8 8.0 0.00 0.00 0.00 60 1017.6
20260831202155 32 54 1.6 8.0 0.00 0.00 0.00 60 1017.6
20260831201920 32 25 1.6 3.2 0.00 0.00 0.00 61 1017.6
20260831201420 32 56 3.2 4.8 0.00 0.00 0.00 60 1017.6
20260831201156 32 179 0.0 6.4 0.00 0.00 0.00 62 1017.8
20260831200920 32 168 0.0 1.6 0.00 0.00 0.00 61 1017.8
20260831200421 32 128 1.6 3.2 0.00 0.00 0.00 59 1017.8
20260831200157 32 65 3.2 4.8 0.00 0.00 0.00 61 1017.8
20260831195919 32 92 1.6 3.2 0.00 0.00 0.00 60 1017.8
20260831195420 32 117 3.2 3.2 0.00 0.00 0.00 60 1017.9
20260831195156 32 13 0.0 1.6 0.00 0.00 0.00 64 1017.9
20260831194921 32 0 1.6 1.6 0.00 0.00 0.00 63 1017.9
20260831194419 32 233 0.0 0.0 0.00 0.00 0.00 62 1017.9
20260831194156 32 305 0.0 0.0 0.00 0.00 0.00 64 1018.1
20260831193920 31 298 0.0 1.6 0.00 0.00 0.00 62 1018.1
20260831193421 31 0 0.0 1.6 0.00 0.00 0.00 61 1018.1
20260831193157 31 56 3.2 4.8 0.00 0.00 0.00 65 1018.1
20260831192919 31 86 3.2 3.2 0.00 0.00 0.00 65 1018.1
20260831192420 31 73 1.6 3.2 0.00 0.00 0.00 66 1018.3
20260831192156 31 83 3.2 3.2 0.00 0.00 0.00 65 1018.3
20260831191920 31 38 1.6 8.0 0.00 0.00 0.00 65 1018.3
20260831191419 31 37 1.6 3.2 0.00 0.00 0.00 65 1018.3
20260831191156 31 102 6.4 6.4 0.00 0.00 0.00 64 1018.5
20260831190920 31 21 3.2 3.2 0.00 0.00 0.00 65 1018.5
20260831190420 31 316 0.0 3.2 0.00 0.00 0.00 64 1018.5
20260831190157 31 44 0.0 3.2 0.00 0.00 0.00 64 1018.5
20260831185919 31 66 8.0 8.0 0.00 0.00 0.00 64 1018.5
20260831185420 31 353 1.6 1.6 0.00 0.00 0.00 65 1018.6
20260831185157 31 119 0.0 0.0 0.00 0.00 0.00 65 1018.6
20260831184919 31 119 0.0 1.6 0.00 0.00 0.00 65 1018.6
20260831184420 31 97 3.2 3.2 0.00 0.00 0.00 68 1018.6
20260831184157 31 51 1.6 3.2 0.00 0.00 0.00 67 1018.8
20260831183921 31 73 3.2 4.8 0.00 0.00 0.00 66 1018.8
20260831183419 31 0 6.4 8.0 0.00 0.00 0.00 65 1018.8
20260831183156 31 40 4.8 8.0 0.00 0.00 0.00 65 1018.8
20260831182920 31 68 4.8 4.8 0.00 0.00 0.00 65 1018.8
20260831182420 31 0 3.2 6.4 0.00 0.00 0.00 66 1018.9
20260831182156 31 0 4.8 8.0 0.00 0.00 0.00 64 1018.9
20260831181920 31 34 3.2 6.4 0.00 0.00 0.00 64 1018.9
20260831181419 31 49 6.4 8.0 0.00 0.00 0.00 66 1018.9
20260831181155 31 37 6.4 8.0 0.00 0.00 0.00 66 1019.1
20260831180919 31 107 0.0 0.0 0.00 0.00 0.00 65 1019.1
20260831180420 31 147 3.2 4.8 0.00 0.00 0.00 63 1019.1
20260831180157 31 148 1.6 4.8 0.00 0.00 0.00 62 1019.1
20260831175919 31 167 3.2 6.4 0.00 0.00 0.00 61 1019.1
20260831175420 31 140 3.2 3.2 0.00 0.00 0.00 62 1019.2
20260831175307 31 168 0.0 1.6 0.00 0.00 0.00 63 1019.2
20260831175157 31 168 0.0 1.6 0.00 0.00 0.00 63 1019.2
20260831174919 31 160 3.2 3.2 0.00 0.00 0.00 67 1019.2
20260831174420 31 268 0.0 0.0 0.00 0.00 0.00 66 1019.2
20260831174155 31 261 0.0 0.0 0.00 0.00 0.00 67 1019.4
20260831173919 31 329 0.0 1.6 0.00 0.00 0.00 67 1019.4
20260831173419 31 0 1.6 3.2 0.00 0.00 0.00 65 1019.4
20260831173229 31 148 0.0 3.2 0.00 0.00 0.00 68 1019.4
20260831173156 31 148 0.0 3.2 0.00 0.00 0.00 68 1019.4
20260831172920 31 140 4.8 4.8 0.00 0.00 0.00 68 1019.4
20260831172420 31 199 0.0 1.6 0.00 0.00 0.00 68 1019.6
20260831172157 31 210 3.2 4.8 0.00 0.00 0.00 71 1019.6
20260831171919 31 206 0.0 0.0 0.00 0.00 0.00 67 1019.6
20260831171420 31 172 0.0 0.0 0.00 0.00 0.00 65 1019.6
20260831171156 31 234 0.0 1.6 0.00 0.00 0.00 65 1019.6
20260831170920 31 243 1.6 1.6 0.00 0.00 0.00 64 1019.6
20260831170419 31 219 4.8 4.8 0.00 0.00 0.00 64 1019.6
20260831170229 31 220 3.2 4.8 0.00 0.00 0.00 65 1019.6
20260831170156 31 220 3.2 4.8 0.00 0.00 0.00 65 1019.6
20260831165919 31 181 3.2 3.2 0.00 0.00 0.00 67 1019.6
20260831165419 31 152 0.0 1.6 0.00 0.00 0.00 68 1019.7
20260831165157 31 212 0.0 1.6 0.00 0.00 0.00 67 1019.7
20260831164919 31 232 1.6 3.2 0.00 0.00 0.00 66 1019.7
20260831164420 31 178 1.6 1.6 0.00 0.00 0.00 67 1019.7
20260831164156 31 271 0.0 0.0 0.00 0.00 0.00 67 1020.0
20260831163921 31 333 1.6 3.2 0.00 0.00 0.00 69 1020.0
20260831163420 31 128 0.0 0.0 0.00 0.00 0.00 67 1020.0
20260831163155 31 14 1.6 1.6 0.00 0.00 0.00 67 1020.0
20260831162920 30 244 0.0 1.6 0.00 0.00 0.00 66 1020.0
20260831162420 30 109 4.8 8.0 0.00 0.00 0.00 67 1020.0
20260831162157 30 4 1.6 1.6 0.00 0.00 0.00 72 1020.0
20260831161919 30 270 0.0 0.0 0.00 0.00 0.00 73 1020.0
20260831161420 30 301 1.6 1.6 0.00 0.00 0.00 71 1020.0
20260831161157 30 278 0.0 1.6 0.00 0.00 0.00 69 1020.1
20260831160920 30 261 1.6 3.2 0.00 0.00 0.00 69 1020.1
20260831160419 30 257 0.0 0.0 0.00 0.00 0.00 68 1020.1
20260831160156 30 185 0.0 0.0 0.00 0.00 0.00 68 1020.1
20260831155919 30 185 0.0 0.0 0.00 0.00 0.00 68 1020.1
20260831155419 30 126 1.6 1.6 0.00 0.00 0.00 67 1020.1
20260831155156 30 131 0.0 0.0 0.00 0.00 0.00 67 1020.1
20260831154920 30 131 1.6 3.2 0.00 0.00 0.00 69 1020.1
20260831154419 30 158 1.6 1.6 0.00 0.00 0.00 70 1020.1
20260831154156 30 0 0.0 3.2 0.00 0.00 0.00 70 1020.0
20260831153919 30 116 0.0 0.0 0.00 0.00 0.00 72 1020.0
20260831153420 30 322 0.0 0.0 0.00 0.00 0.00 72 1020.0
20260831153155 30 178 0.0 0.0 0.00 0.00 0.00 73 1020.0
20260831152920 30 178 0.0 1.6 0.00 0.00 0.00 73 1020.0
20260831152420 30 193 0.0 0.0 0.00 0.00 0.00 74 1020.1
20260831152155 30 193 0.0 0.0 0.00 0.00 0.00 74 1020.1
20260831151920 29 193 0.0 0.0 0.00 0.00 0.00 74 1020.1
20260831151421 29 205 0.0 0.0 0.00 0.00 0.00 76 1020.1
20260831151156 29 203 3.2 4.8 0.00 0.00 0.00 76 1020.1
20260831150919 28 107 0.0 0.0 0.00 0.00 0.00 76 1020.1
20260831150420 28 141 0.0 3.2 0.00 0.00 0.00 77 1020.1
20260831150157 28 134 4.8 4.8 0.00 0.00 0.00 80 1020.1
20260831145920 28 195 0.0 1.6 0.00 0.00 0.00 80 1020.1
20260831145420 28 234 0.0 1.6 0.00 0.00 0.00 80 1020.2
20260831145155 28 186 0.0 1.6 0.00 0.00 0.00 80 1020.2
20260831144921 28 186 0.0 0.0 0.00 0.00 0.00 81 1020.2
20260831144419 28 209 1.6 3.2 0.00 0.00 0.00 81 1020.2
20260831144157 27 229 3.2 3.2 0.00 0.00 0.00 81 1020.1
20260831143920 27 212 3.2 3.2 0.00 0.00 0.00 83 1020.1
20260831143421 27 171 1.6 3.2 0.00 0.00 0.00 84 1020.1
20260831143156 27 160 1.6 4.8 0.00 0.00 0.00 85 1020.1
20260831142919 27 148 0.0 0.0 0.00 0.00 0.00 85 1020.1
20260831142420 27 161 0.0 1.6 0.00 0.00 0.00 85 1020.1
20260831142157 27 193 1.6 4.8 0.00 0.00 0.00 86 1020.1
20260831141919 27 143 1.6 3.2 0.00 0.00 0.00 86 1020.1
20260831141420 26 168 0.0 0.0 0.00 0.00 0.00 86 1020.1
20260831141156 26 109 0.0 3.2 0.00 0.00 0.00 87 1020.2
20260831140921 26 150 1.6 3.2 0.00 0.00 0.00 87 1020.2
20260831140419 26 145 0.0 0.0 0.00 0.00 0.00 88 1020.2
20260831140158 26 145 0.0 1.6 0.00 0.00 0.00 88 1020.2
20260831135920 26 131 0.0 0.0 0.00 0.00 0.00 88 1020.2
20260831135421 26 185 0.0 3.2 0.00 0.00 0.00 89 1020.2
20260831135156 26 203 0.0 0.0 0.00 0.00 0.00 89 1020.2
20260831134920 26 179 0.0 0.0 0.00 0.00 0.00 89 1020.2
20260831134419 26 217 0.0 1.6 0.00 0.00 0.00 89 1020.2
20260831134156 26 165 1.6 4.8 0.00 0.00 0.00 90 1020.3
20260831133919 25 203 0.0 0.0 0.00 0.00 0.00 90 1020.3
20260831133420 25 182 0.0 3.2 0.00 0.00 0.00 91 1020.3
20260831133155 25 161 1.6 4.8 0.00 0.00 0.00 92 1020.3
20260831132919 25 121 1.6 1.6 0.00 0.00 0.00 92 1020.3
20260831132419 25 141 4.8 4.8 0.00 0.00 0.00 94 1020.2
20260831132157 25 164 1.6 3.2 0.00 0.00 0.00 95 1020.2
20260831131919 25 145 4.8 4.8 0.00 0.00 0.00 95 1020.2
20260831131420 24 128 0.0 4.8 0.00 0.00 0.00 97 1020.2
20260831131155 24 100 3.2 3.2 0.00 0.00 0.00 98 1020.1
20260831130920 24 89 6.4 6.4 0.00 0.00 0.00 98 1020.1
20260831130419 24 168 0.0 3.2 0.00 0.00 0.00 99 1020.1
20260831130159 23 136 0.0 1.6 0.00 0.00 0.00 100 1020.1
20260831125920 23 123 0.0 3.2 0.00 0.00 0.00 100 1020.1
20260831125419 23 131 1.6 6.4 0.00 0.00 0.00 100 1020.1
20260831125157 23 117 1.6 4.8 0.00 0.00 0.00 100 1020.1
20260831124920 23 167 0.0 4.8 0.00 0.00 0.00 100 1020.1
20260831124419 23 131 4.8 4.8 0.00 0.00 0.00 100 1020.1
20260831124156 23 154 3.2 3.2 0.00 0.00 0.00 100 1019.9
20260831123919 23 164 0.0 3.2 0.00 0.00 0.00 100 1019.9
20260831123420 23 164 3.2 4.8 0.00 0.00 0.00 100 1019.9
20260831123200 23 134 3.2 4.8 0.00 0.00 0.00 100 1019.9
20260831122921 23 138 0.0 3.2 0.00 0.00 0.00 100 1019.9
20260831122419 22 148 0.0 1.6 0.00 0.00 0.00 100 1019.6
20260831122156 22 150 0.0 0.0 0.00 0.00 0.00 100 1019.6
20260831121920 22 134 0.0 1.6 0.00 0.00 0.00 100 1019.6
20260831121420 22 120 0.0 0.0 0.00 0.00 0.00 100 1019.6
20260831121158 22 117 0.0 0.0 0.00 0.00 0.00 100 1019.5
20260831120920 22 120 1.6 1.6 0.00 0.00 0.00 100 1019.5
20260831120421 22 114 0.0 0.0 0.00 0.00 0.00 100 1019.5
20260831120156 22 117 1.6 1.6 0.00 0.00 0.00 100 1019.5
20260831115919 22 130 1.6 1.6 0.00 0.00 0.00 100 1019.5
20260831115419 22 124 1.6 4.8 0.00 0.00 0.00 100 1019.2
20260831115158 22 162 0.0 3.2 0.00 0.00 0.00 100 1019.2
20260831114920 22 126 1.6 3.2 0.00 0.00 0.00 100 1019.2
20260831114420 22 121 1.6 3.2 0.00 0.00 0.00 100 1019.2
20260831114200 22 143 1.6 1.6 0.00 0.00 0.00 100 1019.0
20260831113919 22 151 1.6 3.2 0.00 0.00 0.00 100 1019.0
20260831113420 22 150 1.6 1.6 0.00 0.00 0.00 100 1019.0
20260831113157 22 147 1.6 1.6 0.00 0.00 0.00 100 1019.0
20260831112920 22 161 1.6 3.2 0.00 0.00 0.00 100 1019.0
20260831112421 22 140 1.6 3.2 0.00 0.00 0.00 100 1018.7
20260831112200 22 134 1.6 1.6 0.00 0.00 0.00 100 1018.7
20260831111920 22 123 1.6 1.6 0.00 0.00 0.00 100 1018.7
20260831111420 22 133 1.6 1.6 0.00 0.00 0.00 100 1018.7
20260831111155 22 124 1.6 1.6 0.00 0.00 0.00 100 1018.3
20260831110921 22 147 0.0 3.2 0.00 0.00 0.00 100 1018.3
20260831110419 22 141 1.6 1.6 0.00 0.00 0.00 100 1018.3
20260831110157 22 128 0.0 3.2 0.00 0.00 0.00 100 1018.3
20260831105920 22 158 0.0 4.8 0.00 0.00 0.00 100 1018.3
20260831105421 22 106 1.6 1.6 0.00 0.00 0.00 100 1018.2
20260831105156 22 144 1.6 1.6 0.00 0.00 0.00 100 1018.2
20260831104919 22 114 1.6 3.2 0.00 0.00 0.00 100 1018.2
20260831104421 22 140 3.2 3.2 0.00 0.00 0.00 100 1018.2
20260831104156 22 151 1.6 1.6 0.00 0.00 0.00 100 1018.1
20260831103920 22 141 0.0 4.8 0.00 0.00 0.00 100 1018.1
20260831103419 22 147 1.6 3.2 0.00 0.00 0.00 100 1018.1
20260831103155 22 151 0.0 1.6 0.00 0.00 0.00 100 1018.1
20260831102920 22 148 0.0 1.6 0.00 0.00 0.00 100 1018.1
20260831102421 23 148 0.0 0.0 0.00 0.00 0.00 99 1018.0
20260831102311 23 120 0.0 3.2 0.00 0.00 0.00 99 1018.0
20260831102158 23 120 0.0 3.2 0.00 0.00 0.00 99 1018.0
20260831101919 23 164 1.6 3.2 0.00 0.00 0.00 99 1018.0
20260831101420 23 157 0.0 1.6 0.00 0.00 0.00 98 1018.0
20260831101156 23 161 1.6 1.6 0.00 0.00 0.00 98 1017.9
20260831100921 23 150 4.8 4.8 0.00 0.00 0.00 98 1017.9
20260831100419 23 154 1.6 3.2 0.00 0.00 0.00 98 1017.9
20260831100255 23 150 0.0 3.2 0.00 0.00 0.00 98 1017.9
20260831100156 23 150 0.0 3.2 0.00 0.00 0.00 98 1017.9
20260831095920 23 164 0.0 4.8 0.00 0.00 0.00 98 1017.9
20260831095421 23 141 1.6 3.2 0.00 0.00 0.00 97 1017.9
20260831095157 23 143 4.8 4.8 0.00 0.00 0.00 97 1017.9
20260831094919 23 155 3.2 3.2 0.00 0.00 0.00 97 1017.9
20260831094419 23 147 3.2 3.2 0.00 0.00 0.00 97 1017.9
20260831094229 23 152 0.0 3.2 0.00 0.00 0.00 97 1017.9
20260831094156 23 152 0.0 3.2 0.00 0.00 0.00 97 1017.9
20260831093919 23 145 0.0 3.2 0.00 0.00 0.00 97 1017.9
20260831093420 23 136 0.0 3.2 0.00 0.00 0.00 97 1017.9
20260831093157 23 143 1.6 3.2 0.00 0.00 0.00 97 1017.9
20260831092919 23 112 0.0 0.0 0.00 0.00 0.00 97 1017.9
20260831092419 23 117 0.0 0.0 0.00 0.00 0.00 97 1017.9
20260831092243 23 106 0.0 0.0 0.00 0.00 0.00 97 1017.9
20260831092156 23 106 0.0 0.0 0.00 0.00 0.00 97 1017.9
20260831091920 23 123 0.0 0.0 0.00 0.00 0.00 97 1017.9
20260831091419 23 130 0.0 0.0 0.00 0.00 0.00 98 1017.9
20260831091158 23 124 0.0 1.6 0.00 0.00 0.00 98 1017.7
20260831090920 23 126 0.0 1.6 0.00 0.00 0.00 98 1017.7
20260831090420 23 121 1.6 3.2 0.00 0.00 0.00 98 1017.7
20260831090157 23 113 0.0 0.0 0.00 0.00 0.00 98 1017.7
20260831085919 23 113 0.0 0.0 0.00 0.00 0.00 98 1017.7
20260831085419 23 113 0.0 1.6 0.00 0.00 0.00 98 1017.6
20260831085157 23 114 1.6 1.6 0.00 0.00 0.00 98 1017.6
20260831084920 23 123 0.0 0.0 0.00 0.00 0.00 98 1017.6
20260831084419 23 107 0.0 0.0 0.00 0.00 0.00 98 1017.6
20260831084157 23 107 0.0 0.0 0.00 0.00 0.00 98 1017.5
20260831083919 23 116 0.0 0.0 0.00 0.00 0.00 98 1017.5
20260831083420 23 113 0.0 0.0 0.00 0.00 0.00 98 1017.5